Weather History for KROX - August, 2013

Change the Weather History Date:

Tuesday, August 6, 2013

  Actual Average Record
Temperature  
Mean Temperature 58 °F -  
Max Temperature 66 °F 79 °F 95 °F (1988)
Min Temperature 51 °F 51 °F 38 °F (1976)
Degree Days  
Heating Degree Days 6    
Growing Degree Days 8 (Base 50)    
Moisture  
Dew Point 54 °F    
Average Humidity 79    
Maximum Humidity 83    
Minimum Humidity 64    
Precipitation  
Precipitation 0.63 in - - ()
Sea Level Pressure  
Sea Level Pressure 29.78 in    
Wind  
Wind Speed 4 mph (NNW)    
Max Wind Speed 10 mph    
Max Gust Speed 18 mph    
Visibility 9 miles    
Events Rain , Thunderstorm    
Averages and records for this station are not official NWS values.
T = Trace of Precipitation, MM = Missing Value Source: NWS Daily Summary

Daily Weather History Graph

Daily Weather History Graph

Search for Another Location

Airport or City:

Trip Planner

Search our weather history database for the weather conditions in past years. The results will help you decide how hot, cold, wet, or windy it might be!

Date:

Astronomy

Aug. 06, 2013 Rise Set
Actual Time 6:03 AM CDT 8:53 PM CDT
Civil Twilight 5:26 AM CDT 9:29 PM CDT
Nautical Twilight 4:40 AM CDT 10:15 PM CDT
Astronomical Twilight 3:43 AM CDT 11:11 PM CDT
Moon 6:00 AM CDT (8/6) 8:20 PM CDT (8/6)
Length of Visible Light 16h 02m
Length of Day
14h 49m
Waning Crescent, 0% of the Moon is Illuminated
Aug 6
Waning Crescent
Aug 6
New
Aug 14
First Quarter
Aug 20
Full
Aug 28
Last Quarter

Hourly Weather History & Observations

Time (CDT) Temp. Dew Point Humidity Pressure Visibility Wind Dir Wind Speed Gust Speed Precip Events Conditions
12:14 AM 60.8 °F 55.4 °F 82% 29.78 in 10.0 mi SW 6.9 mph - N/A   Scattered Clouds
12:34 AM 60.8 °F 55.4 °F 82% 29.77 in 10.0 mi SW 8.1 mph - N/A   Clear
12:54 AM 60.8 °F 55.4 °F 82% 29.76 in 10.0 mi SW 8.1 mph - N/A   Mostly Cloudy
1:14 AM 60.8 °F 55.4 °F 82% 29.76 in 10.0 mi SW 3.5 mph - N/A   Overcast
1:34 AM 60.8 °F 55.4 °F 82% 29.76 in 10.0 mi WNW 3.5 mph - N/A   Overcast
1:54 AM 60.8 °F 55.4 °F 82% 29.76 in 10.0 mi Calm Calm - N/A   Overcast
2:14 AM 60.8 °F 55.4 °F 82% 29.76 in 10.0 mi Calm Calm - N/A   Mostly Cloudy
2:34 AM 60.8 °F 55.4 °F 82% 29.76 in 10.0 mi Calm Calm - N/A   Mostly Cloudy
2:54 AM 60.8 °F 55.4 °F 82% 29.75 in 10.0 mi Calm Calm - N/A   Overcast
3:14 AM 60.8 °F 55.4 °F 82% 29.74 in 10.0 mi South 3.5 mph - N/A   Mostly Cloudy
3:34 AM 59.0 °F 53.6 °F 82% 29.73 in 10.0 mi Calm Calm - N/A   Scattered Clouds
3:54 AM 59.0 °F 53.6 °F 82% 29.73 in 10.0 mi South 5.8 mph - N/A   Scattered Clouds
4:14 AM 59.0 °F 53.6 °F 82% 29.73 in 10.0 mi South 5.8 mph - N/A   Mostly Cloudy
4:34 AM 59.0 °F 53.6 °F 82% 29.73 in 10.0 mi SSW 3.5 mph - N/A   Overcast
4:54 AM 59.0 °F 53.6 °F 82% 29.74 in 10.0 mi Calm Calm - N/A Rain Rain
5:14 AM 59.0 °F 53.6 °F 82% 29.73 in 10.0 mi Calm Calm - 0.01 in Rain Light Rain
5:34 AM 59.0 °F 53.6 °F 82% 29.74 in 7.0 mi Calm Calm - 0.02 in Rain Rain
5:54 AM 59.0 °F 53.6 °F 82% 29.75 in 7.0 mi WNW 3.5 mph - 0.05 in Rain Rain
6:14 AM 59.0 °F 53.6 °F 82% 29.74 in 10.0 mi Calm Calm - 0.05 in Rain Light Rain
6:34 AM 59.0 °F 53.6 °F 82% 29.74 in 10.0 mi Calm Calm - 0.05 in   Overcast
6:54 AM 59.0 °F 53.6 °F 82% 29.75 in 7.0 mi Calm Calm - 0.08 in Rain Rain
7:14 AM 59.0 °F 53.6 °F 82% 29.75 in 7.0 mi South 5.8 mph - 0.03 in Rain Rain
7:34 AM 59.0 °F 53.6 °F 82% 29.75 in 5.0 mi Calm Calm - 0.08 in Rain Rain
7:54 AM 59.0 °F 53.6 °F 82% 29.74 in 7.0 mi Calm Calm - 0.10 in Rain Light Rain
8:14 AM 59.0 °F 53.6 °F 82% 29.75 in 5.0 mi Calm Calm - 0.02 in Rain Rain
8:34 AM 59.0 °F 53.6 °F 82% 29.75 in 4.0 mi Calm Calm - 0.07 in Rain Rain
8:54 AM 59.0 °F 53.6 °F 82% 29.75 in 5.0 mi South 3.5 mph - 0.10 in Rain Rain
9:14 AM 59.0 °F 53.6 °F 82% 29.75 in 3.0 mi Calm Calm - 0.09 in Rain Heavy Rain
9:34 AM 60.8 °F 53.6 °F 77% 29.75 in 5.0 mi Calm Calm - 0.17 in Rain Rain
9:54 AM 60.8 °F 53.6 °F 77% 29.75 in 7.0 mi Calm Calm - 0.18 in Rain Light Rain
10:14 AM 60.8 °F 55.4 °F 82% 29.75 in 7.0 mi Calm Calm - N/A Rain Light Rain
10:33 AM 60.8 °F 55.4 °F 82% 29.75 in 10.0 mi Calm Calm - N/A Rain , Thunderstorm Light Thunderstorms and Rain
10:54 AM 60.8 °F 55.4 °F 82% 29.76 in 10.0 mi Calm Calm - N/A   Light Drizzle
11:14 AM 60.8 °F 55.4 °F 82% 29.76 in 10.0 mi Calm Calm - N/A   Overcast
11:34 AM 62.6 °F 55.4 °F 77% 29.75 in 10.0 mi Calm Calm - N/A Rain Light Rain
11:54 AM 62.6 °F 57.2 °F 82% 29.75 in 10.0 mi Calm Calm - N/A   Overcast
12:14 PM 62.6 °F 57.2 °F 82% 29.75 in 10.0 mi Calm Calm - N/A   Mostly Cloudy
12:34 PM 62.6 °F 57.2 °F 82% 29.75 in 10.0 mi NNW 4.6 mph - N/A   Scattered Clouds
12:54 PM 64.4 °F 57.2 °F 77% 29.75 in 10.0 mi NNE 3.5 mph - N/A   Scattered Clouds
1:14 PM 62.6 °F 57.2 °F 82% 29.75 in 10.0 mi Calm Calm - N/A   Scattered Clouds
1:34 PM 64.4 °F 59.0 °F 83% 29.75 in 10.0 mi Calm Calm - N/A   Scattered Clouds
1:54 PM 62.6 °F 57.2 °F 82% 29.76 in 3.0 mi NW 6.9 mph 18.4 mph 0.10 in Rain Heavy Rain
2:14 PM 62.6 °F 57.2 °F 82% 29.76 in 10.0 mi NNW 5.8 mph - 0.01 in Rain Light Rain
2:34 PM 62.6 °F 57.2 °F 82% 29.77 in 10.0 mi NNW 9.2 mph - 0.01 in   Light Drizzle
2:54 PM 62.6 °F 57.2 °F 82% 29.78 in 10.0 mi North 4.6 mph - 0.01 in Rain Light Rain
3:14 PM 62.6 °F 57.2 °F 82% 29.78 in 10.0 mi North 4.6 mph - N/A Rain Light Rain
3:34 PM 62.6 °F 57.2 °F 82% 29.78 in 10.0 mi NNE 8.1 mph - N/A Rain Light Rain
3:54 PM 62.6 °F 57.2 °F 82% 29.78 in 10.0 mi NNE 3.5 mph - N/A   Light Drizzle
4:14 PM 62.6 °F 57.2 °F 82% 29.78 in 10.0 mi NNE 4.6 mph - N/A   Clear
4:34 PM 62.6 °F 57.2 °F 82% 29.79 in 10.0 mi North 6.9 mph - N/A   Scattered Clouds
4:54 PM 60.8 °F 55.4 °F 82% 29.80 in 10.0 mi North 10.4 mph - N/A   Scattered Clouds
5:15 PM 62.6 °F 55.4 °F 77% 29.80 in 10.0 mi North 6.9 mph - N/A   Clear
5:34 PM 64.4 °F 55.4 °F 73% 29.80 in 10.0 mi North 10.4 mph - N/A   Clear
5:54 PM 66.2 °F 55.4 °F 68% 29.81 in 10.0 mi North 8.1 mph - N/A   Clear
6:14 PM 66.2 °F 53.6 °F 64% 29.81 in 10.0 mi North 8.1 mph - N/A   Clear
6:34 PM 66.2 °F 55.4 °F 68% 29.81 in 10.0 mi North 6.9 mph - N/A   Clear
6:54 PM 66.2 °F 53.6 °F 64% 29.82 in 10.0 mi North 4.6 mph - N/A   Clear
7:14 PM 66.2 °F 53.6 °F 64% 29.83 in 10.0 mi North 3.5 mph - N/A   Clear
7:35 PM 66.2 °F 53.6 °F 64% 29.83 in 10.0 mi North 3.5 mph - N/A   Scattered Clouds
7:54 PM 66.2 °F 53.6 °F 64% 29.83 in 10.0 mi NNW 4.6 mph - 0.01 in   Mostly Cloudy
8:14 PM 64.4 °F 53.6 °F 68% 29.83 in 10.0 mi North 4.6 mph - N/A   Scattered Clouds
8:35 PM 60.8 °F 53.6 °F 77% 29.84 in 10.0 mi NNW 6.9 mph - N/A   Clear
8:54 PM 57.2 °F 51.8 °F 82% 29.85 in 10.0 mi NW 8.1 mph - N/A   Clear
9:14 PM 55.4 °F 50.0 °F 82% 29.86 in 10.0 mi NNW 8.1 mph - N/A   Clear
9:35 PM 55.4 °F 48.2 °F 77% 29.87 in 10.0 mi NNW 5.8 mph - N/A   Clear
9:54 PM 55.4 °F 48.2 °F 77% 29.86 in 10.0 mi NNW 6.9 mph - N/A   Clear
10:14 PM 53.6 °F 48.2 °F 82% 29.86 in 10.0 mi NNW 8.1 mph - N/A   Clear
10:35 PM 55.4 °F 48.2 °F 77% 29.87 in 10.0 mi North 9.2 mph - N/A   Clear
10:54 PM 55.4 °F 48.2 °F 77% 29.88 in 10.0 mi North 6.9 mph - N/A   Clear
11:14 PM 53.6 °F 46.4 °F 77% 29.88 in 10.0 mi NNW 6.9 mph - N/A   Clear
11:34 PM 51.8 °F 46.4 °F 82% 29.89 in 10.0 mi NNW 8.1 mph - N/A   Clear
11:54 PM 51.8 °F 46.4 °F 82% 29.89 in 10.0 mi NW 3.5 mph - N/A   Clear